Location: Belleuse
(49.7067°N, 2.1162°E)
Time: 14:52:04
(UTC+00:00)

Daily predictions for brighter satellites

Satellite Brightness Start Highest point End
(mag) Time Altitude Azimuth Time Altitude Azimuth Time Altitude Azimuth
Aureole 3 Rocket 4.4 20:19:34 10° NNW 20:23:55 51° W 20:29:53 10° S
Cosmos 1408 Rocket 3.8 20:20:41 10° N 20:25:07 60° ENE 20:29:30 10° SSE
Cosmos 1733 4.0 20:23:49 10° N 20:27:00 31° ENE 20:30:10 10° SE
Meteor 1-27 Rocket 4.3 20:21:59 10° SSE 20:27:01 38° E 20:32:09 10° NNE
CZ-4C R/B 3.3 20:24:25 10° NNE 20:28:18 70° ESE 20:32:20 10° S
Cosmos 1340 Rocket 3.8 20:26:39 10° SSE 20:30:04 28° E 20:33:29 10° NNE
IRS-1A Rocket 4.3 20:25:55 10° SSE 20:31:29 76° ENE 20:37:01 10° NNW
SPOT 5 2.7 20:31:28 10° SSE 20:35:55 85° WSW 20:40:17 10° NNW
Cosmos 1151 Rocket 4.2 20:33:17 10° SE 20:36:55 27° E 20:40:32 10° NNE
Ariane Rocket 3.4 20:34:36 10° SE 20:39:31 52° ENE 20:44:28 10° N
Cosmos 1726 2.5 20:40:57 10° NNW 20:43:59 50° W 20:47:00 10° S
USA 234 4.1 20:40:10 10° ENE 20:46:32 56° NNW 20:52:53 10° W
Cosmos 1833 Rocket 4.5 20:44:08 10° ESE 20:46:37 13° E 20:49:07 10° ENE
SPOT 3 Rocket 3.8 20:42:23 10° SE 20:47:23 56° ENE 20:52:25 10° N
Cosmos 1818 4.4 20:44:34 10° S 20:49:12 29° ESE 20:53:51 10° NE
IRS-1C Rocket 4.3 20:44:46 10° S 20:50:02 75° WSW 20:55:19 10° NNW
Cosmos 2279 Rocket 4.2 20:44:44 10° NNW 20:50:55 73° W 20:57:05 10° S
Cosmos 2369 Rocket 4.3 20:47:42 10° NW 20:51:52 22° W 20:56:02 10° SSW
Cosmos 1805 4.1 20:48:29 10° N 20:51:54 33° ENE 20:54:54 12° SE
Cosmos 1656 4.2 20:46:53 10° NNW 20:52:11 48° NE 20:57:19 11° SE
Nadezhda 4 Rocket 4.2 20:47:30 10° SSE 20:53:30 54° E 20:59:35 10° NNE
Cosmos 1603 3.8 20:48:20 10° SSW 20:54:02 86° WNW 20:59:49 10° NNE
Okean-O 3.9 20:50:00 10° SSW 20:54:07 38° W 20:58:15 10° NNW
USA 245 2.0 20:52:10 12° SSE 20:54:17 89° NE 20:56:54 10° NNW
ERS-1 Rocket 3.0 20:49:48 10° SSE 20:54:50 89° WSW 20:59:55 10° NNW
Okean 1 3.2 20:51:23 10° S 20:55:14 80° E 20:59:09 10° NNE
Cosmos 614 Rocket 4.4 20:54:52 10° S 20:59:47 44° ESE 21:04:44 10° NE
Cosmos 1500 Rocket 3.6 20:56:56 10° NNW 21:01:16 81° W 21:05:33 10° S
Cosmos 1975 3.6 20:59:30 10° N 21:03:10 35° ENE 21:06:07 14° SE
SL-8 R/B 3.6 21:05:29 10° W 21:10:14 78° S 21:15:01 10° E
USA 59 Rocket 0.2 21:06:48 10° NW 21:10:39 71° SW 21:15:04 14° SSE
Cosmos 1805 Rocket 3.7 21:08:14 10° NNW 21:12:38 75° W 21:16:58 10° S
Meteor 1-19 Rocket 4.3 21:07:34 10° S 21:13:25 85° ESE 21:19:06 10° NNE
NOSS 2-1 (E) 3.8 21:09:36 10° NW 21:13:29 67° SW 21:17:49 15° SSE
Sich 1 3.2 21:09:18 10° NNW 21:13:40 72° W 21:17:57 10° S
Cosmos 1536 4.1 21:12:48 10° NNW 21:16:26 36° W 21:20:03 10° SSW
Cosmos 1633 Rocket 3.9 21:12:31 10° N 21:16:40 38° ENE 21:19:46 16° SE
Cosmos 1666 Rocket 3.9 21:17:29 10° N 21:21:41 49° ENE 21:24:43 18° SE
Spot 1 4.2 21:20:39 10° NNE 21:24:42 53° ESE 21:28:15 14° S
NOSS 2-1 (D) 4.1 21:22:42 10° NW 21:26:30 50° SW 21:30:23 16° SSE
Terra 2.4 21:22:28 10° S 21:27:04 54° W 21:31:43 10° NNW
Cosmos 2026 Rocket 4.2 21:26:45 14° SSE 21:32:09 56° E 21:38:12 10° NNE
Cosmos 1992 Rocket 4.0 21:27:59 10° NNW 21:33:15 85° WSW 21:37:11 18° SSE
Cosmos 1697 Rocket 3.2 21:37:26 10° NNW 21:42:56 51° NE 21:47:10 17° SE
NOSS 3-3 (A) 3.8 21:42:17 10° SSW 21:47:40 64° SE 21:53:59 10° NE
Cosmos 1340 4.2 21:45:58 10° NW 21:48:52 26° W 21:51:36 11° SSW
USA 281 3.3 21:44:56 18° SSE 21:50:04 82° WSW 21:56:43 10° NNW
MOS 1 Rocket 4.3 21:45:42 12° S 21:50:18 50° W 21:55:34 10° NNW
Cosmos 1980 Rocket 3.4 21:47:18 10° NNW 21:52:29 34° NE 21:57:19 11° ESE
Orbus 7S? 4.1 21:47:41 10° SSW 21:52:51 33° SE 21:55:50 10° ENE
Cosmos 1707 4.4 21:52:01 16° ESE 21:52:56 18° E 21:55:26 10° NE
Lacrosse 4 Rocket 2.1 21:52:31 10° NW 21:56:25 44° WSW 21:58:43 22° S
Lacrosse 5 rocket 2.7 21:53:23 10° NW 21:57:23 38° NNE 22:01:15 10° E
Cosmos 1140 Rocket 4.3 21:55:40 22° SSE 21:58:08 33° ESE 22:02:46 10° NE
NOSS 3-4 (A) 4.1 21:56:43 10° NW 22:03:22 67° NE 22:10:02 14° SE
NOSS 3-4 (C) 4.1 21:56:48 10° NW 22:03:28 67° NE 22:10:09 14° ESE
Meteor 2-4 Rocket 3.9 21:58:17 12° SSW 22:03:53 82° WNW 22:09:52 10° N
H-2A R/B 3.6 22:02:00 20° ESE 22:04:20 35° ENE 22:08:15 10° N
Cosmos 1066 Rocket 4.4 22:00:45 20° S 22:04:47 63° E 22:10:36 10° NNE
IRIDIUM 104 4.5 22:01:01 10° N 22:06:14 71° W 22:10:02 19° S
Cosmos 1553 Rocket 4.1 22:00:13 10° N 22:06:17 66° ENE 22:10:15 23° SSE
Cosmos 1626 1.8 22:06:08 26° SSW 22:07:48 75° W 22:11:02 10° N
Cosmos 1842 4.0 22:07:26 27° SE 22:08:32 33° E 22:11:52 10° NNE
BREEZE-M DEB (TANK) 1.6 22:06:38 10° W 22:08:42 82° S 22:10:18 21° E
Cosmos 1151 Rocket 4.5 22:10:18 10° SW 22:14:16 34° WNW 22:18:14 10° N
BREEZE-M DEB (TANK) 4.2 22:11:16 12° SSW 22:15:13 46° SE 22:29:47 10° ENE
CZ-2C R/B 3.7 22:15:04 10° NNE 22:19:31 61° ESE 22:21:42 28° S
KORONAS-FOTON 4.3 22:18:54 32° SE 22:19:58 41° E 22:23:29 10° NNE
Landsat 5 4.4 22:17:05 10° N 22:20:40 41° WNW 22:24:05 11° SW
ARIANE 5 R/B 2.5 22:18:32 29° SSE 22:20:41 78° ENE 22:24:59 10° NNW
NOSS 3-3 (C) 3.8 22:15:15 10° SW 22:20:44 87° NW 22:27:19 10° NE
Cosmos 1674 2.6 22:21:29 38° SSE 22:22:30 54° E 22:25:57 10° NNE
Cosmos 2285 Rocket 4.4 22:21:35 24° SSE 22:25:05 47° ESE 22:31:08 10° NNE
Cosmos 1092 Rocket 4.4 22:21:59 12° SSW 22:27:42 63° WNW 22:34:02 10° N
USA 234 4.3 22:22:46 10° ENE 22:28:59 48° N 22:35:13 10° WNW
Cosmos 1766 3.5 22:25:22 10° NNW 22:29:04 58° W 22:30:39 31° SSW
Cosmos 1833 Rocket 2.6 22:25:16 18° SSW 22:29:33 76° ESE 22:35:11 10° NNE
Cosmos 1763 Rocket 4.3 22:25:04 10° NNW 22:30:10 43° ENE 22:33:32 19° ESE
SL-16 R/B 4.3 22:26:19 10° N 22:30:39 22° NE 22:34:57 10° E
Cosmos 1328 Rocket 4.2 22:27:52 17° SSW 22:31:00 52° WNW 22:35:14 10° N
Cosmos 1818 4.1 22:27:02 10° SW 22:32:26 61° NW 22:37:54 10° NE
H-2A R/B 4.2 22:34:18 10° ENE 22:36:35 14° E 22:37:41 13° ESE
Cosmos 407 Rocket 3.9 22:34:46 29° SSE 22:37:04 46° ESE 22:42:04 10° NNE
Cosmos 724 4.3 22:34:15 21° SSW 22:38:11 60° ESE 22:43:55 10° NE
Cosmos 1515 Rocket 3.5 22:38:30 30° SSW 22:40:37 86° W 22:44:58 10° N
Cosmos 2082 Rocket 3.2 22:38:48 25° SE 22:40:46 31° ESE 22:45:43 10° NE
Cosmos 2266 Rocket 4.3 22:38:38 26° SSE 22:42:00 55° E 22:48:07 10° NNE
Cosmos 1470 2.5 22:38:50 10° N 22:42:33 87° W 22:43:42 42° S
BREEZE-M DEB (TANK) 3.2 22:42:14 40° SSE 22:42:39 42° SE 22:48:23 10° ENE
Cosmos 44 Rocket 3.6 22:38:10 10° NW 22:42:59 52° WSW 22:44:56 32° S
Cosmos 1470 Rocket 4.5 22:46:16 10° NNW 22:50:26 41° W 22:52:36 24° SSW
Cosmos 1869 Rocket 3.6 22:47:45 10° N 22:52:08 68° ENE 22:53:51 35° SSE
SL-8 R/B 3.9 22:47:53 10° W 22:52:28 48° SSW 22:54:04 34° SSE
MINOTAUR 4 R/B 4.2 22:50:27 10° N 22:53:20 52° WNW 22:54:07 38° WSW
Cosmos 2228 Rocket 4.3 22:58:02 25° ESE 22:59:27 30° E 23:03:25 10° NNE
USA 59 Rocket 2.7 22:58:37 10° W 23:00:10 11° WSW 23:01:37 10° SW
Meteor 2-10 Rocket 4.2 22:54:33 10° N 23:00:16 53° ENE 23:03:24 25° SE
Cosmos 1655 Rocket 4.4 22:57:29 27° SSE 23:00:47 54° E 23:07:00 10° NNE
Cosmos 2251 Rocket 3.5 22:59:14 31° S 23:01:42 67° ESE 23:06:58 10° NNE
DELTA 2 R/B (1) 4.4 22:57:03 10° WSW 23:01:00 28° SSW 23:01:00 28° SSW
GEOS 3 Rocket 3.8 22:56:53 10° NE 23:02:05 71° NW 23:07:09 10° SW
PSLV R/B 4.3 23:01:05 10° N 23:05:04 59° WNW 23:07:00 28° SW
Cosmos 1908 3.1 23:02:11 10° NNW 23:05:44 68° W 23:06:34 48° SSW
Meteor 1-22 Rocket 4.1 23:01:17 10° N 23:06:39 76° ENE 23:09:19 31° SSE
Cosmos 1346 Rocket 4.1 23:09:10 10° N 23:12:37 30° ENE 23:14:08 22° ESE
Cosmos 1933 Rocket 4.3 23:11:19 10° NNW 23:15:27 43° W 23:17:09 29° SW
Cosmos 1400 Rocket 3.3 23:15:48 38° SE 23:16:42 46° E 23:20:31 10° NNE
GP-B 3.6 23:12:48 10° NNE 23:17:06 48° E 23:18:36 34° SE
Meteor 1-15 Rocket 4.2 23:13:54 10° NNW 23:19:33 86° W 23:22:13 33° S
Cosmos 2322 Rocket 3.8 23:21:31 10° NNW 23:26:29 30° NE 23:31:28 10° ESE
Cosmos 1697 Rocket 3.8 23:21:46 10° NW 23:26:40 31° WSW 23:28:53 23° SW
Cosmos 1862 Rocket 4.3 23:26:10 32° SE 23:27:26 40° E 23:31:30 10° NNE
Cosmos 1707 3.7 23:26:18 27° WSW 23:27:40 37° WNW 23:31:05 10° N
ALOS 2 2.7 23:28:50 39° SSW 23:30:18 63° WSW 23:34:42 10° NNW
Cosmos 1356 Rocket 4.2 23:29:58 33° SE 23:30:59 38° E 23:34:51 10° NNE
Cosmos 1607 4.5 23:27:37 10° SW 23:34:02 63° NW 23:40:30 10° NE
USA 267 4.1 23:28:29 10° ENE 23:34:07 30° SE 23:35:51 27° SSE
In-Cosmos 22 4.3 23:31:11 29° SSW 23:34:17 75° WNW 23:40:00 10° N
PSLV R/B 3.7 23:31:01 10° NNE 23:35:28 62° E 23:36:50 40° SSE
Cosmos 1300 2.5 23:31:58 10° N 23:35:33 77° E 23:36:14 55° SSE
Cosmos 1441 Rocket 3.7 23:32:17 10° NNW 23:35:41 41° W 23:36:17 37° WSW
Lacrosse 5 rocket 1.2 23:31:50 10° WNW 23:35:59 70° SW 23:37:07 45° SSE
Cosmos 1980 Rocket 2.5 23:31:12 10° NW 23:36:44 52° WSW 23:39:03 32° SSW
Cosmos 381 Rocket 4.5 23:30:53 10° NNW 23:37:20 81° WSW 23:40:43 30° SSE
Cosmos 2333 Rocket 4.0 23:34:08 10° NNW 23:39:04 29° NE 23:44:00 10° ESE
H-2A R/B 3.9 23:37:59 23° SW 23:39:19 28° W 23:43:01 10° NW
Meteor 1-4 Rocket 4.4 23:41:04 15° E 23:41:04 15° E 23:42:48 10° NE
Cosmos 1953 3.7 23:40:20 10° N 23:43:48 29° ENE 23:45:27 21° ESE
SL-14 R/B 3.1 23:48:27 51° S 23:49:21 88° ESE 23:53:12 10° N
Cosmos 1707 Rocket 3.5 23:49:21 42° S 23:50:51 83° E 23:55:20 10° NNE
Cosmos 841 Rocket 3.7 23:47:44 10° NNW 23:52:58 67° ENE 23:55:58 26° SE
